IRIDIUM 75

Last updated on Wed Nov 29 2017 00:19:03 GMT+0000 (Coordinated Universal Time)

1 25346U 98032E 17332.50573033 -.00000030 00000-0 -17603-4 0 9990 2 25346 86.3958 155.4838 0001891 87.4135 272.7278 14.34220218 23223
UTC large
Height (km)
Speed (km/s)
/
Latitude / Longitude
Inclination (degrees)
Orbital Period (minutes)
Azimuth
Elevation
Range (km)
Doppler Factor

Next 0 passes for location: London (51.5072 / 0.1276)

Sorry there are no passes over London.